sat.trackr.live / text

‹ back to catalog

SHIYAN-23 (SY-23)

NORAD 59728 · 2024-089A

PAYLOAD ACTIVE UNKNOWN

§ Identity

Operator
Country
PRC
Launch date
2024-05-11
Launch site
JSC
Launch vehicle
Mass (kg)
RCS (m²)

External: N2YO · Heavens-Above · Gunter

§ Orbital elements

Epoch: 2026-09-22T16:45:27.180000Z

Period
96.83 min
Inclination
97.7825°
Eccentricity
0.0002766
Mean motion
14.87148146 rev/d
Perigee alt
604.9 km
Apogee alt
608.8 km
Semi-major
6,985.0 km
B*
3.8669e-5
RAAN
265.5115°
Arg perigee
217.2662°
Mean anomaly
142.8362°
Rev number
12,833

§ Raw data

SHIYAN-23 (SY-23)1 59728U 24089A   26265.69823125  .00000294  00000+0  38669-4 0  99912 59728  97.7825 265.5115 0002766 217.2662 142.8362 14.87148146128330

JSON: /api/v1/satellites/59728 · /tle

For live sub-satellite position, see the globe view (requires WebGL).

§ Visibility from observer

Set your observer location to see the next 7 days of passes ≥ 10°. The values pass through the URL so the page stays shareable.

No JS? Fill the form by hand. The geolocation button needs JavaScript.